sat.trackr.live / text

‹ back to catalog

STARLINK-33556

NORAD 62109 · 2024-220X

PAYLOAD ACTIVE UNKNOWN

§ Identity

Operator
Country
US
Launch date
2024-11-25
Launch site
AFETR
Launch vehicle
Mass (kg)
RCS (m²)

Purposes: comms

External: N2YO · Heavens-Above · Gunter

§ Orbital elements

Epoch: 2026-05-24T23:54:50.114304Z

Period
94.27 min
Inclination
42.9988°
Eccentricity
0.0001329
Mean motion
15.27578294 rev/d
Perigee alt
482.1 km
Apogee alt
484.0 km
Semi-major
6,861.2 km
B*
4.1229e-4
RAAN
134.4034°
Arg perigee
271.9512°
Mean anomaly
88.1188°
Rev number
8,488

§ Raw data

STARLINK-335561 62109U 24220X   26144.99641336  .00011100  00000+0  41229-3 0  99992 62109  42.9988 134.4034 0001329 271.9512  88.1188 15.27578294 84883

JSON: /api/v1/satellites/62109 · /tle

For live sub-satellite position, see the globe view (requires WebGL).

§ Visibility from observer

Set your observer location to see the next 7 days of passes ≥ 10°. The values pass through the URL so the page stays shareable.

No JS? Fill the form by hand. The geolocation button needs JavaScript.